Home > Weather > Whitby > Past weeks

Flag for Canada Weather for the Past 2 Weeks in Whitby, Ontario, Canada

Now
46 °F

Partly sunny.


Feels Like: 43 °F
Forecast: 40 / 58 °F
Wind: 7 mph from East

Location: Toronto Buttonville

Current Time: May 4, 2016 at 8:46:26 AM

Latest Report: May 4, 2016 at 8:00 AM


Visibility: 15 mi

Pressure: 29.74 "Hg

Humidity: 71%

Dew Point: 37 °F

Location of WhitbyLocation

Historic Weather in Whitby — Graph

°F

Whitby Temperature Yesterday

Maximum temperature yesterday: 57 °F (at 11:00 AM)
Minimum temperature yesterday: 39 °F (at 6:00 AM)
Average temperature yesterday: 49 °F

High & Low Weather Summary for the Past Weeks

 TemperatureHumidityPressure
High64 °F (Apr 21, 12:00 PM)94% (Apr 21, 11:00 PM)30.38 "Hg (Apr 21, 11:00 PM)
Low32 °F (Apr 27, 4:00 AM)13% (Apr 20, 5:00 PM)29.74 "Hg (Apr 26, 5:00 AM)
Average46 °F59%30.05 "Hg
* Reported Apr 19 7:00 AM — May 4 7:00 AM, Whitby, Weather by CustomWeather, © 2016

Note: Actual official high and low records may vary slightly from our data, if they occured in-between our weather recording intervals... More about our weather records

Advertising

Whitby Weather History for the Previous 24 Hours

Scroll right to see more
 ConditionsComfort  
Time TempWeatherWind HumidityBarometerVisibility
7:00 AM
Wed, May 4
41 °FPassing clouds.3 mph81%29.74 "Hg15 mi
6:00 AM39 °FPassing clouds.2 mph81%29.74 "Hg15 mi
5:00 AM39 °FPassing clouds.2 mph81%29.75 "Hg15 mi
4:00 AM39 °FPassing clouds.No wind81%29.75 "Hg15 mi
3:00 AM41 °FPassing clouds.No wind81%29.75 "Hg15 mi
2:00 AM43 °FPassing clouds.2 mph76%29.77 "Hg15 mi
1:00 AM45 °FPassing clouds.2 mph71%29.78 "Hg15 mi
12:00 AM46 °FPassing clouds.6 mph66%29.79 "Hg15 mi
11:00 PM
Tue, May 3
48 °FPassing clouds.6 mph66%29.80 "Hg15 mi
10:00 PM50 °FPassing clouds.6 mph62%29.81 "Hg15 mi
9:00 PM50 °FPartly sunny.8 mph67%29.81 "Hg15 mi
8:00 PM54 °FBroken clouds.6 mph51%29.81 "Hg15 mi
7:00 PM55 °FPartly sunny.8 mph51%29.81 "Hg15 mi
6:00 PM54 °FPartly sunny.6 mph58%29.82 "Hg15 mi
5:00 PM55 °FPartly sunny.9 mph55%29.83 "Hg15 mi
4:00 PM57 °FPartly sunny.9 mph51%29.84 "Hg15 mi
3:00 PM55 °FPartly sunny.9 mph55%29.85 "Hg15 mi
2:00 PM55 °FPartly sunny.10 mph55%29.85 "Hg15 mi
1:00 PM55 °FPassing clouds.14 mph55%29.86 "Hg15 mi
12:00 PM57 °FPassing clouds.6 mph48%29.88 "Hg15 mi
11:00 AM57 °FPassing clouds.3 mph51%29.89 "Hg15 mi
10:00 AM54 °FPassing clouds.3 mph54%29.91 "Hg15 mi
9:00 AM50 °FPassing clouds.No wind67%29.93 "Hg15 mi
8:00 AM46 °FPassing clouds.No wind76%29.94 "Hg12 mi
Weather by CustomWeather, © 2016

See weather overviewHow to use our weather pages